SCP
3 2 1 1 1 0 0 0 0 0 0 0 0 0 0 0 0 0 0 0 0 0
1 1 1 0 0 0 0 0 0 0 0 0 0 0 0 0 0 0 0 0 0 0
0 0 0 0 0 0 0 0 0 0 0 0 0 0 0 0 0 0 0 0 0 0
0 0 0 0 0 0 0 0 0 0 0 0 0 0 0 0 0 0 0 0 0 0
0 0 0 0 0 0 0 0 0 0 0 0 0 0 0 0 0 0 0 0 0 0
0 0 0 0 0 0 0 0 0 0 0 0 0 0 0 0 0 0 0 0 0 0
0 0 0 0 0 0 0 0 0 0 0 0 0 0 0 0 0 0 0 0 0 0
0 0 0 0 0 0 0 0 0 0 0 0 0 0 0 0 0 0 0 0 0 0
0 0 0 0 0 0 0 0 0 0 0 0 0 0 0 0 0 0 0 0 0 0
0 0 0 0 0 0 0 0 0 0 0 0 0 0 0 0 0 0 0 0 0 0
0 0 0 0 0 0 0 0 0 0 0 0 0 0 0 0 0 0 0 0 0 0
0 0 0 0 0 0 0 0 0 0 0 0 0 0 0 0 0 0 0 0 0 0
0 0 0 0 0 0 0 0 0 0 0 0 0 0 0 0 0 0 0 0 0 0
0 0 0 0 0 0 0 0 0 0 0 0 0 0 0 0 0 0 0 0 0 0
Wind_Speed_500mb
39 52 49 44 39 40 35 31 32 31 36 41 34 28 26 25 23 16 20 26 32 31
46 43 44 44 42 33 34 31 34 36 40 33 26 24 24 27 26 23 30 33 34 37
40 42 44 41 37 36 40 42 41 38 33 27 26 27 27 29 31 33 29 34 39 40
43 42 38 32 34 37 36 32 33 28 22 24 27 29 31 33 34 39 34 35 38 40
41 41 36 35 34 33 28 26 25 21 22 24 29 32 34 34 39 34 36 38 36 47
33 31 27 26 26 25 21 22 19 23 29 32 30 32 34 37 35 33 36 41 51 60
29 27 24 23 23 20 22 20 22 29 31 32 31 35 35 35 38 37 46 55 61 63
27 26 24 19 19 21 20 23 31 32 31 35 36 33 34 35 46 49 51 58 60 45
24 24 21 20 21 20 22 26 31 37 36 31 29 29 36 39 42 47 56 57 52 40
20 15 18 17 18 16 26 34 35 33 32 36 30 33 38 42 44 50 51 42 43 47
14 16 15 17 17 25 32 32 35 35 29 34 36 41 44 45 44 40 31 36 35 34
17 14 15 20 22 21 29 38 34 25 29 37 44 49 52 52 46 40 44 48 55 73
21 11 16 19 26 33 31 25 21 30 40 50 41 29 30 37 40 46 59 76 83 76
21 18 21 24 23 27 17 27 32 40 23 13 42 37 28 34 49 66 78 80 71 55
Wind_Direction_500mb
221 212 226 221 231 246 249 258 268 278 282 287 289 299 308 316 325 313 299 297 298 307
214 218 220 221 235 233 230 238 252 269 278 288 301 307 313 315 317 307 305 290 300 302
216 227 231 235 233 224 239 250 262 272 283 297 313 318 312 306 302 308 292 298 299 299
225 221 223 229 234 241 246 262 271 277 294 304 303 305 301 300 298 306 301 302 297 297
219 230 231 233 237 245 260 266 277 291 294 293 290 292 295 294 300 301 304 302 299 303
233 232 229 233 246 261 274 282 284 283 282 290 294 293 292 294 299 294 289 297 300 305
240 238 239 242 255 273 282 287 286 286 293 297 302 296 302 297 288 290 301 307 313 310
241 243 240 250 266 276 285 284 290 294 296 294 292 300 306 302 310 313 314 314 320 306
253 241 239 256 274 279 288 291 287 297 303 311 302 300 302 305 308 308 310 313 315 318
236 238 256 278 293 289 283 289 301 313 314 314 310 304 306 309 311 310 312 316 314 320
239 262 267 274 277 284 293 304 308 311 318 320 320 311 309 313 306 309 294 292 293 300
241 260 265 271 286 275 290 302 309 331 327 325 322 311 302 295 293 290 291 299 303 310
212 236 231 253 274 296 313 346 356 340 336 331 325 334 315 306 304 303 312 318 323 324
234 245 279 287 308 342 1 345 342 343 351 328 332 343 331 322 323 326 324 322 323 321
Wind_Speed_850mb
39 52 49 44 39 40 35 31 32 31 36 41 34 28 26 25 23 16 20 26 32 31
46 43 44 44 42 33 34 31 34 36 40 33 26 24 24 27 26 23 30 33 34 37
40 42 44 41 37 36 40 42 41 38 33 27 26 27 27 29 31 33 29 34 39 40
43 42 38 32 34 37 36 32 33 28 22 24 27 29 31 33 34 39 34 35 38 40
41 41 36 35 34 33 28 26 25 21 22 24 29 32 34 34 39 34 36 38 36 47
33 31 27 26 26 25 21 22 19 23 29 32 30 32 34 37 35 33 36 41 51 60
29 27 24 23 23 20 22 20 22 29 31 32 31 35 35 35 38 37 46 55 61 63
27 26 24 19 19 21 20 23 31 32 31 35 36 33 34 35 46 49 51 58 60 45
24 24 21 20 21 20 22 26 31 37 36 31 29 29 36 39 42 47 56 57 52 40
20 15 18 17 18 16 26 34 35 33 32 36 30 33 38 42 44 50 51 42 43 47
14 16 15 17 17 25 32 32 35 35 29 34 36 41 44 45 44 40 31 36 35 34
17 14 15 20 22 21 29 38 34 25 29 37 44 49 52 52 46 40 44 48 55 73
21 11 16 19 26 33 31 25 21 30 40 50 41 29 30 37 40 46 59 76 83 76
21 18 21 24 23 27 17 27 32 40 23 13 42 37 28 34 49 66 78 80 71 55
Wind_Direction_850mb
221 212 226 221 231 246 249 258 268 278 282 287 289 299 308 316 325 313 299 297 298 307
214 218 220 221 235 233 230 238 252 269 278 288 301 307 313 315 317 307 305 290 300 302
216 227 231 235 233 224 239 250 262 272 283 297 313 318 312 306 302 308 292 298 299 299
225 221 223 229 234 241 246 262 271 277 294 304 303 305 301 300 298 306 301 302 297 297
219 230 231 233 237 245 260 266 277 291 294 293 290 292 295 294 300 301 304 302 299 303
233 232 229 233 246 261 274 282 284 283 282 290 294 293 292 294 299 294 289 297 300 305
240 238 239 242 255 273 282 287 286 286 293 297 302 296 302 297 288 290 301 307 313 310
241 243 240 250 266 276 285 284 290 294 296 294 292 300 306 302 310 313 314 314 320 306
253 241 239 256 274 279 288 291 287 297 303 311 302 300 302 305 308 308 310 313 315 318
236 238 256 278 293 289 283 289 301 313 314 314 310 304 306 309 311 310 312 316 314 320
239 262 267 274 277 284 293 304 308 311 318 320 320 311 309 313 306 309 294 292 293 300
241 260 265 271 286 275 290 302 309 331 327 325 322 311 302 295 293 290 291 299 303 310
212 236 231 253 274 296 313 346 356 340 336 331 325 334 315 306 304 303 312 318 323 324
234 245 279 287 308 342 1 345 342 343 351 328 332 343 331 322 323 326 324 322 323 321